KJ4HF Weather Reports


time (UTC)temp
C
wind
direction
speed
KPH
gust
KPH
rain 1hr
cm
rain 24hr
cm
rain mn
cm
humidity
%
barometer
mb
20260510190542 27 156 3.2 12.9 0.00 0.00 0.00 29 1015.6
20260510190046 26 219 4.8 12.9 0.00 0.00 0.00 29 1015.6
20260510185542 27 232 0.0 8.0 0.00 0.00 0.00 29 1015.5
20260510185043 27 132 3.2 8.0 0.00 0.00 0.00 30 1015.6
20260510184552 26 342 1.6 11.3 0.00 0.00 0.00 29 1015.7
20260510184043 26 176 4.8 11.3 0.00 0.00 0.00 31 1015.7
20260510183543 26 253 1.6 6.4 0.00 0.00 0.00 29 1015.7
20260510183049 26 142 1.6 6.4 0.00 0.00 0.00 33 1015.8
20260510182543 26 128 1.6 11.3 0.00 0.00 0.00 32 1015.7
20260510182042 26 84 3.2 11.3 0.00 0.00 0.00 35 1015.8
20260510181552 26 109 1.6 12.9 0.00 0.00 0.00 31 1015.9
20260510181044 26 0 4.8 12.9 0.00 0.00 0.00 31 1016.0
20260510180543 26 200 4.8 11.3 0.00 0.00 0.00 31 1016.0
20260510180056 26 246 4.8 11.3 0.00 0.00 0.00 31 1015.9
20260510175542 26 5 3.2 11.3 0.00 0.00 0.00 31 1015.9
20260510175042 26 270 4.8 11.3 0.00 0.00 0.00 30 1016.0
20260510174550 26 252 0.0 11.3 0.00 0.00 0.00 34 1016.1
20260510174043 26 148 3.2 11.3 0.00 0.00 0.00 32 1016.1
20260510173543 26 217 1.6 12.9 0.00 0.00 0.00 33 1016.2
20260510173054 26 85 3.2 14.5 0.00 0.00 0.00 32 1016.2
20260510172540 26 205 6.4 14.5 0.00 0.00 0.00 31 1016.2
20260510172040 26 145 3.2 9.7 0.00 0.00 0.00 35 1016.2
20260510171559 26 182 1.6 8.0 0.00 0.00 0.00 31 1016.4
20260510171044 26 0 3.2 8.0 0.00 0.00 0.00 35 1016.5
20260510170541 26 312 3.2 8.0 0.00 0.00 0.00 31 1016.4
20260510170114 26 319 1.6 8.0 0.00 0.00 0.00 32 1016.3
20260510165543 26 84 3.2 9.7 0.00 0.00 0.00 35 1016.5
20260510165044 26 328 3.2 9.7 0.00 0.00 0.00 32 1016.3
20260510164600 26 59 3.2 11.3 0.00 0.00 0.00 32 1016.5
20260510164040 26 50 3.2 11.3 0.00 0.00 0.00 34 1016.4
20260510163544 26 82 1.6 6.4 0.00 0.00 0.00 33 1016.3
20260510163049 25 34 1.6 6.4 0.00 0.00 0.00 42 1016.4
20260510162544 25 95 1.6 9.7 0.00 0.00 0.00 37 1016.5
20260510162044 25 240 1.6 9.7 0.00 0.00 0.00 35 1016.5
20260510161550 26 9 3.2 9.7 0.00 0.00 0.00 36 1016.6
20260510161044 25 107 1.6 12.9 0.00 0.00 0.00 37 1016.5
20260510160547 25 114 3.2 12.9 0.00 0.00 0.00 38 1016.6
20260510160051 25 95 3.2 12.9 0.00 0.00 0.00 37 1016.5
20260510155544 25 105 1.6 8.0 0.00 0.00 0.00 43 1016.5
20260510155043 25 0 0.0 9.7 0.00 0.00 0.00 42 1016.5
20260510154550 25 0 1.6 12.9 0.00 0.00 0.00 43 1016.6
20260510154044 25 0 1.6 12.9 0.00 0.00 0.00 46 1016.7
20260510153542 24 57 3.2 11.3 0.00 0.00 0.00 43 1016.6
20260510153054 24 109 3.2 11.3 0.00 0.00 0.00 42 1016.6
20260510152542 24 46 1.6 8.0 0.00 0.00 0.00 43 1016.7
20260510152044 24 93 1.6 11.3 0.00 0.00 0.00 47 1016.7
20260510151552 23 99 1.6 11.3 0.00 0.00 0.00 50 1016.7
20260510151042 24 30 1.6 8.0 0.00 0.00 0.00 50 1016.7
20260510150544 23 22 0.0 8.0 0.00 0.00 0.00 55 1016.8
20260510150052 23 57 1.6 8.0 0.00 0.00 0.00 47 1016.9
20260510145542 23 84 0.0 6.4 0.00 0.00 0.00 52 1016.9
20260510145042 23 52 1.6 9.7 0.00 0.00 0.00 52 1016.8
20260510144550 23 65 3.2 11.3 0.00 0.00 0.00 52 1016.8
20260510144046 22 350 1.6 12.9 0.00 0.00 0.00 52 1016.8
20260510143542 23 94 3.2 12.9 0.00 0.00 0.00 52 1016.8
20260510143052 23 67 0.0 8.0 0.00 0.00 0.00 59 1016.8
20260510142543 22 174 1.6 8.0 0.00 0.00 0.00 59 1016.8
20260510142043 22 68 0.0 6.4 0.00 0.00 0.00 53 1016.6
20260510141550 22 218 1.6 6.4 0.00 0.00 0.00 57 1016.8
20260510141043 22 153 1.6 6.4 0.00 0.00 0.00 59 1016.7
20260510140543 22 99 1.6 6.4 0.00 0.00 0.00 58 1016.7
20260510140050 22 89 0.0 6.4 0.00 0.00 0.00 67 1016.6
20260510135542 22 0 1.6 4.8 0.00 0.00 0.00 69 1016.6
20260510135044 21 0 1.6 8.0 0.00 0.00 0.00 66 1016.7
20260510134556 21 321 1.6 8.0 0.00 0.00 0.00 65 1016.7
20260510134043 21 115 0.0 4.8 0.00 0.00 0.00 67 1016.6
20260510133542 21 109 1.6 4.8 0.00 0.00 0.00 72 1016.6
20260510133051 20 62 0.0 4.8 0.00 0.00 0.00 75 1016.5
20260510132542 20 66 1.6 4.8 0.00 0.00 0.00 75 1016.6
20260510132044 20 5 0.0 4.8 0.00 0.00 0.00 77 1016.6
20260510131559 19 5 0.0 4.8 0.00 0.00 0.00 80 1016.7
20260510131042 19 5 1.6 6.4 0.00 0.00 0.00 78 1016.6
20260510130542 19 0 0.0 6.4 0.00 0.00 0.00 79 1016.6
20260510130054 18 211 0.0 4.8 0.00 0.00 0.00 82 1016.6
20260510125543 18 340 0.0 6.4 0.00 0.00 0.00 83 1016.6
20260510125043 18 339 0.0 6.4 0.00 0.00 0.00 84 1016.6
20260510124605 18 241 0.0 3.2 0.00 0.00 0.00 88 1016.4
20260510124045 17 0 0.0 4.8 0.00 0.00 0.00 90 1016.5
20260510123543 17 233 0.0 4.8 0.00 0.00 0.00 91 1016.5
20260510123053 17 0 0.0 3.2 0.00 0.00 0.00 91 1016.4
20260510122543 16 221 0.0 1.6 0.00 0.00 0.00 95 1016.1
20260510122043 16 0 0.0 1.6 0.00 0.00 0.00 96 1016.1
20260510121551 16 0 0.0 1.6 0.00 0.00 0.00 97 1016.0
20260510121043 15 221 0.0 1.6 0.00 0.00 0.00 97 1015.9
20260510120543 15 0 0.0 1.6 0.00 0.00 0.00 97 1015.8
20260510120054 14 0 0.0 0.0 0.00 0.00 0.00 97 1015.8
20260510115542 14 0 0.0 0.0 0.00 0.00 0.00 97 1015.7
20260510115042 14 0 0.0 0.0 0.00 0.00 0.00 97 1015.7
20260510114552 13 0 0.0 0.0 0.00 0.00 0.00 97 1015.5
20260510114044 13 0 0.0 0.0 0.00 0.00 0.00 97 1015.4
20260510113544 12 0 0.0 0.0 0.00 0.00 0.00 97 1015.3
20260510113053 12 0 0.0 1.6 0.00 0.00 0.00 96 1015.2
20260510112543 12 0 0.0 1.6 0.00 0.00 0.00 96 1015.0
20260510112043 12 220 0.0 1.6 0.00 0.00 0.00 96 1015.0
20260510111549 12 0 0.0 0.0 0.00 0.00 0.00 96 1015.0
20260510111041 12 0 0.0 0.0 0.00 0.00 0.00 96 1014.8
20260510110542 12 0 0.0 0.0 0.00 0.00 0.00 96 1014.9
20260510110052 11 0 0.0 0.0 0.00 0.00 0.00 96 1014.7
20260510105543 11 0 0.0 0.0 0.00 0.00 0.00 96 1014.7
20260510105043 11 0 0.0 1.6 0.00 0.00 0.00 96 1014.6
20260510104556 12 0 0.0 1.6 0.00 0.00 0.00 96 1014.5
20260510104042 12 0 0.0 0.0 0.00 0.00 0.00 96 1014.4
20260510103542 12 0 0.0 0.0 0.00 0.00 0.00 96 1014.4
20260510103050 12 0 0.0 0.0 0.00 0.00 0.00 96 1014.3
20260510102543 12 0 0.0 0.0 0.00 0.00 0.00 96 1014.2
20260510102043 12 0 0.0 0.0 0.00 0.00 0.00 96 1014.3
20260510101551 12 0 0.0 1.6 0.00 0.00 0.00 96 1014.2
20260510101042 12 0 0.0 1.6 0.00 0.00 0.00 96 1014.1
20260510100544 12 0 0.0 1.6 0.00 0.00 0.00 96 1014.2
20260510095544 12 0 0.0 0.0 0.00 0.00 0.00 96 1014.0
20260510095041 12 0 0.0 0.0 0.00 0.00 0.00 96 1014.0
20260510094601 12 0 0.0 0.0 0.00 0.00 0.00 96 1013.9
20260510094043 12 0 0.0 0.0 0.00 0.00 0.00 96 1013.9
20260510093543 12 0 0.0 0.0 0.00 0.00 0.00 96 1013.8
20260510093053 12 0 0.0 0.0 0.00 0.00 0.00 96 1013.8
20260510092544 12 0 0.0 0.0 0.00 0.00 0.00 96 1013.8
20260510092042 12 0 0.0 0.0 0.00 0.00 0.00 96 1013.8
20260510091559 12 0 0.0 0.0 0.00 0.00 0.00 96 1013.7
20260510091042 12 0 0.0 0.0 0.00 0.00 0.00 96 1013.6
20260510090545 12 0 0.0 0.0 0.00 0.00 0.00 96 1013.6
20260510090050 12 0 0.0 0.0 0.00 0.00 0.00 96 1013.6
20260510085542 12 0 0.0 0.0 0.00 0.00 0.00 96 1013.5
20260510085049 12 0 0.0 0.0 0.00 0.00 0.00 96 1013.5
20260510084553 13 0 0.0 0.0 0.00 0.00 0.00 96 1013.3
20260510084043 13 0 0.0 0.0 0.00 0.00 0.00 96 1013.2
20260510083542 13 0 0.0 0.0 0.00 0.00 0.00 96 1013.1
20260510083103 13 0 0.0 0.0 0.00 0.00 0.00 96 1013.2
20260510082543 13 0 0.0 0.0 0.00 0.00 0.00 96 1013.1
20260510082044 13 0 0.0 0.0 0.00 0.00 0.00 96 1013.1
20260510081559 13 0 0.0 0.0 0.00 0.00 0.00 96 1013.2
20260510081045 13 0 0.0 0.0 0.00 0.00 0.00 96 1013.1
20260510080543 13 0 0.0 0.0 0.00 0.00 0.00 96 1013.0
20260510080053 13 0 0.0 1.6 0.00 0.00 0.00 96 1013.0
20260510075543 13 0 0.0 1.6 0.00 0.00 0.00 96 1013.0
20260510075047 13 0 0.0 1.6 0.00 0.00 0.00 96 1012.8
20260510074556 13 0 0.0 0.0 0.00 0.00 0.00 96 1012.9
20260510074042 13 0 0.0 0.0 0.00 0.00 0.00 96 1012.9
20260510073542 13 0 0.0 0.0 0.00 0.00 0.00 96 1012.7
20260510073105 13 0 0.0 0.0 0.00 0.00 0.00 95 1012.7
20260510072544 13 0 0.0 0.0 0.00 0.00 0.00 95 1012.5
20260510072043 13 0 0.0 0.0 0.00 0.00 0.00 95 1012.6
20260510071548 13 0 0.0 0.0 0.00 0.00 0.00 95 1012.6
20260510071043 13 0 0.0 0.0 0.00 0.00 0.00 95 1012.5
20260510070543 14 0 0.0 0.0 0.00 0.00 0.00 95 1012.5
20260510070051 14 0 0.0 0.0 0.00 0.00 0.00 95 1012.3
20260510065546 14 0 0.0 0.0 0.00 0.00 0.00 95 1012.3
20260510065042 14 0 0.0 0.0 0.00 0.00 0.00 95 1012.3
20260510064551 14 0 0.0 0.0 0.00 0.00 0.00 95 1012.4
20260510064042 14 0 0.0 0.0 0.00 0.00 0.00 95 1012.4
20260510063543 14 0 0.0 0.0 0.00 0.00 0.00 95 1012.5
20260510063052 14 0 0.0 0.0 0.00 0.00 0.00 95 1012.5
20260510062543 14 0 0.0 0.0 0.00 0.00 0.00 95 1012.7
20260510062045 14 0 0.0 0.0 0.00 0.00 0.00 95 1012.5
20260510061549 14 0 0.0 0.0 0.00 0.00 0.00 95 1012.5
20260510061043 14 0 0.0 0.0 0.00 0.00 0.00 95 1012.6
20260510060543 14 0 0.0 0.0 0.00 0.00 0.00 95 1012.6
20260510060048 14 0 0.0 0.0 0.00 0.00 0.00 95 1012.5
20260510055542 14 0 0.0 0.0 0.00 0.00 0.00 95 1012.6
20260510055042 14 0 0.0 0.0 0.00 0.00 0.00 95 1012.7
20260510054546 14 0 0.0 0.0 0.00 0.00 0.00 95 1012.7
20260510054044 14 0 0.0 0.0 0.00 0.00 0.00 95 1012.6
20260510053543 14 0 0.0 0.0 0.00 0.00 0.00 94 1012.6
20260510053049 14 0 0.0 0.0 0.00 0.00 0.00 94 1012.5
20260510052543 14 0 0.0 0.0 0.00 0.00 0.00 94 1012.7
20260510052042 14 0 0.0 0.0 0.00 0.00 0.00 95 1012.6
20260510051555 15 0 0.0 0.0 0.00 0.00 0.00 95 1012.7
20260510051043 15 0 0.0 0.0 0.00 0.00 0.00 95 1012.9
20260510050544 15 0 0.0 0.0 0.00 0.00 0.00 95 1012.8
20260510050052 15 0 0.0 0.0 0.00 0.00 0.00 95 1012.9
20260510045544 15 0 0.0 0.0 0.00 0.00 0.00 95 1013.0
20260510045044 15 0 0.0 0.0 0.00 0.00 0.00 94 1012.8
20260510044550 15 0 0.0 0.0 0.00 0.00 0.00 94 1012.8
20260510044043 15 0 0.0 0.0 0.00 0.00 0.00 94 1012.9
20260510043543 15 0 0.0 0.0 0.00 0.00 0.00 94 1012.9
20260510043051 15 0 0.0 0.0 0.00 0.00 0.00 94 1012.9
20260510042543 15 0 0.0 0.0 0.00 0.00 0.00 94 1013.0
20260510042042 15 0 0.0 1.6 0.00 0.00 0.00 94 1013.1
20260510041553 15 0 0.0 1.6 0.00 0.00 0.00 93 1013.0
20260510041042 15 0 0.0 1.6 0.00 0.00 0.00 93 1012.9
20260510040546 15 220 0.0 1.6 0.00 0.00 0.00 93 1012.8
20260510040055 15 0 0.0 1.6 0.00 0.00 0.00 93 1013.1
20260510035543 15 0 0.0 3.2 0.00 0.00 0.00 93 1013.1
20260510035043 15 0 0.0 3.2 0.00 0.00 0.00 93 1012.9
20260510034551 15 0 0.0 1.6 0.00 0.00 0.00 93 1013.0
20260510034044 15 0 0.0 1.6 0.00 0.00 0.00 92 1013.1
20260510033544 15 0 0.0 0.0 0.00 0.00 0.00 92 1013.0
20260510033057 15 0 0.0 0.0 0.00 0.00 0.00 92 1012.9
20260510032543 15 0 0.0 0.0 0.00 0.00 0.00 92 1012.9
20260510032043 15 0 0.0 0.0 0.00 0.00 0.00 91 1012.9
20260510031546 15 0 0.0 0.0 0.00 0.00 0.00 92 1012.8
20260510031043 15 0 0.0 0.0 0.00 0.00 0.00 92 1012.7
20260510030543 15 0 0.0 6.4 0.00 0.00 0.00 92 1012.8
20260510030054 15 0 0.0 6.4 0.00 0.00 0.00 92 1012.8
20260510025543 15 0 0.0 1.6 0.00 0.00 0.00 93 1012.8
20260510025043 15 0 0.0 1.6 0.00 0.00 0.00 93 1012.8
20260510024549 15 0 0.0 0.0 0.00 0.00 0.00 92 1012.7
20260510024042 15 0 0.0 0.0 0.00 0.00 0.00 92 1012.7
20260510023542 15 0 0.0 0.0 0.00 0.00 0.00 91 1012.7
20260510023051 15 0 0.0 0.0 0.00 0.00 0.00 91 1012.7
20260510022542 15 0 0.0 0.0 0.00 0.00 0.00 92 1012.6
20260510022042 15 0 0.0 0.0 0.00 0.00 0.00 92 1012.7
20260510021556 15 0 0.0 0.0 0.00 0.00 0.00 92 1012.7
20260510021041 15 0 0.0 0.0 0.00 0.00 0.00 92 1012.7
20260510020542 15 0 0.0 0.0 0.00 0.00 0.00 92 1012.5
20260510020057 15 0 0.0 0.0 0.00 0.00 0.00 91 1012.5
20260510015542 15 0 0.0 0.0 0.00 0.00 0.00 91 1012.4
20260510015043 16 0 0.0 0.0 0.00 0.00 0.00 91 1012.4
20260510014553 16 0 0.0 0.0 0.00 0.00 0.00 90 1012.4
20260510014045 16 0 0.0 0.0 0.00 0.00 0.00 90 1012.4
20260510013543 16 0 0.0 0.0 0.00 0.00 0.00 90 1012.3
20260510013055 16 0 0.0 0.0 0.00 0.00 0.00 90 1012.1
20260510012543 16 0 0.0 0.0 0.00 0.00 0.00 90 1012.2
20260510012047 16 0 0.0 0.0 0.00 0.00 0.00 89 1012.2
20260510011550 16 0 0.0 0.0 0.00 0.00 0.00 89 1011.9
20260510011043 16 0 0.0 0.0 0.00 0.00 0.00 88 1012.0
20260510010542 16 0 0.0 0.0 0.00 0.00 0.00 88 1011.9
20260510010049 16 0 0.0 0.0 0.00 0.00 0.00 88 1011.9
20260510005542 17 0 0.0 0.0 0.00 0.00 0.00 87 1011.6
20260510005043 17 0 0.0 0.0 0.00 0.00 0.00 87 1011.6
20260510004551 17 0 0.0 0.0 0.00 0.00 0.00 86 1011.4
20260510004043 17 0 0.0 0.0 0.00 0.00 0.00 86 1011.4
20260510003541 17 0 0.0 0.0 0.00 0.00 0.00 84 1011.3
20260510003101 17 0 0.0 0.0 0.00 0.00 0.00 84 1011.2
20260510002539 18 0 0.0 0.0 0.00 0.00 0.00 83 1011.3
20260510002042 18 0 0.0 0.0 0.00 0.00 0.00 83 1011.1
20260510001549 18 0 0.0 0.0 0.00 0.00 0.00 83 1011.0
20260510001040 18 0 0.0 0.0 0.00 0.00 0.00 82 1011.1
20260510000547 18 0 0.0 0.0 0.00 0.00 0.00 81 1011.0
20260510000053 18 0 0.0 0.0 0.00 0.00 0.00 80 1010.9
20260509235543 19 0 0.0 0.0 0.00 0.00 0.00 78 1010.9
20260509235041 19 0 0.0 0.0 0.00 0.00 0.00 78 1010.8
20260509234549 20 0 0.0 0.0 0.00 0.00 0.00 77 1010.8
20260509234043 20 0 0.0 4.8 0.00 0.00 0.00 75 1010.8
20260509233542 20 0 0.0 6.4 0.00 0.00 0.00 74 1010.7
20260509233049 20 203 1.6 6.4 0.00 0.00 0.00 73 1010.8
20260509232546 20 0 3.2 6.4 0.00 0.00 0.00 74 1010.7
20260509232040 20 0 3.2 8.0 0.00 0.00 0.00 72 1010.8
20260509231556 20 200 3.2 9.7 0.00 0.00 0.00 72 1010.9
20260509231040 21 169 1.6 9.7 0.00 0.00 0.00 72 1010.8
20260509230543 21 167 3.2 11.3 0.00 0.00 0.00 71 1010.9
20260509230053 21 249 4.8 11.3 0.00 0.00 0.00 70 1010.7
20260509225540 21 199 1.6 11.3 0.00 0.00 0.00 70 1010.6
20260509225042 21 196 3.2 11.3 0.00 0.00 0.00 69 1010.5
20260509224556 21 231 4.8 12.9 0.00 0.00 0.00 68 1010.7
20260509224044 21 169 4.8 12.9 0.00 0.00 0.00 68 1010.6
20260509223543 21 223 6.4 16.1 0.00 0.00 0.00 67 1010.3
20260509223053 21 190 6.4 16.1 0.00 0.00 0.00 67 1010.2
20260509222542 21 206 4.8 12.9 0.00 0.00 0.00 67 1010.1
20260509222042 21 211 6.4 14.5 0.00 0.00 0.00 66 1010.2
20260509221550 22 229 6.4 14.5 0.00 0.00 0.00 65 1010.1
20260509221040 22 188 6.4 14.5 0.00 0.00 0.00 65 1010.1
20260509220546 22 0 4.8 11.3 0.00 0.00 0.00 65 1010.2
20260509220049 22 212 3.2 19.3 0.00 0.00 0.00 67 1010.2
20260509215543 22 188 6.4 19.3 0.00 0.00 0.00 64 1010.2
20260509215041 22 240 4.8 12.9 0.00 0.00 0.00 68 1010.0
20260509214545 22 232 3.2 17.7 0.00 0.00 0.00 65 1010.1
20260509214047 22 221 6.4 17.7 0.00 0.00 0.00 66 1010.3
20260509213540 22 172 8.0 17.7 0.00 0.00 0.00 65 1010.2
20260509213049 22 233 3.2 14.5 0.00 0.00 0.00 66 1010.3
20260509212539 22 221 6.4 16.1 0.00 0.00 0.00 67 1010.2
20260509212042 22 283 8.0 16.1 0.00 0.00 0.00 65 1010.1
20260509211547 22 170 3.2 16.1 0.00 0.00 0.00 65 1009.9
20260509211042 22 165 3.2 14.5 0.00 0.00 0.00 64 1010.0
20260509210543 22 200 4.8 17.7 0.00 0.00 0.00 67 1009.9
20260509210058 22 196 6.4 17.7 0.00 0.00 0.00 65 1010.0
20260509205544 22 204 4.8 12.9 0.00 0.00 0.00 67 1010.2
20260509205043 22 195 1.6 12.9 0.00 0.00 0.00 64 1010.2
20260509204555 22 202 4.8 14.5 0.00 0.00 0.00 67 1010.0
20260509204042 22 250 4.8 14.5 0.00 0.00 0.00 65 1010.2
20260509203547 22 31 3.2 14.5 0.00 0.00 0.00 65 1010.1
20260509203058 22 142 1.6 16.1 0.00 0.00 0.00 65 1010.2
20260509202543 22 150 4.8 19.3 0.00 0.00 0.00 68 1010.1
20260509202046 22 252 8.0 19.3 0.00 0.00 0.00 67 1010.1
20260509201550 22 329 4.8 17.7 0.00 0.00 0.00 69 1010.2
20260509201042 22 168 4.8 14.5 0.00 0.00 0.00 69 1010.3
20260509200542 21 187 3.2 11.3 0.00 0.00 0.00 71 1010.3
20260509200049 21 260 1.6 9.7 0.00 0.00 0.00 70 1010.3
20260509195542 21 180 1.6 9.7 0.00 0.00 0.00 71 1010.3
20260509195046 21 218 3.2 9.7 0.00 0.00 0.00 71 1010.5
20260509194550 21 141 1.6 9.7 0.00 0.00 0.00 72 1010.5
20260509194039 21 186 3.2 12.9 0.00 0.00 0.00 70 1010.5
20260509193542 22 245 4.8 17.7 0.00 0.00 0.00 70 1010.5
20260509193048 22 281 4.8 17.7 0.00 0.00 0.00 69 1010.5
20260509192542 22 228 3.2 11.3 0.00 0.00 0.00 69 1010.6
20260509192043 21 0 4.8 11.3 0.00 0.00 0.00 70 1010.6
20260509191547 21 257 4.8 11.3 0.00 0.00 0.00 72 1010.8
20260509191042 20 187 1.6 11.3 0.00 0.00 0.00 73 1010.8